Location: Maiden
(35.5760°N, 81.2120°W)
Time: 14:51:07
(UTC-05:00)

ISS - Visible Passes

Search period start: 02 December 2016 00:00
Search period end: 12 December 2016 00:00
Orbit: 401 x 410 km, 51.6° (Epoch: 03 December)

Date Brightness Start Highest point End Pass type
(mag) Time Alt. Az. Time Alt. Az. Time Alt. Az.
02 Dec -1.4 18:34:44 10° W 18:37:28 23° NNW 18:38:49 18° N visible
03 Dec -2.3 17:42:19 10° WSW 17:45:27 41° NW 17:48:36 10° NE visible
04 Dec -0.7 18:28:53 10° NW 18:30:27 13° NNW 18:32:02 10° N visible
05 Dec -1.2 17:35:49 10° W 17:38:17 19° NNW 17:40:47 10° NNE visible
